#timestamp,LO_Frequency,Hit,StdDev 
1626498015.1,286047001.1,N
1626498035.9,286047000.7,N
1626498055.7,286047000.5,N
1626498075.6,286047001.2,N
1626498095.4,286047000.4,N
1626498115.2,286047000.7,N
1626498135.1,286047011.9,Y
1626498136.0,286047001.2,P
1626498155.8,286047001.1,P
1626498175.6,286047000.5,N
1626498195.5,286047000.6,N
1626498215.3,286046998.3,Y
1626498235.2,286046996.5,P
1626498255.9,286046996.8,N
1626498275.7,286046999.0,N
1626498295.2,286046998.9,N
1626498315.1,286046999.4,N
1626498316.0,286046999.4,N
1626498335.8,286046999.3,N
1626498355.6,286046998.9,N
1626498375.5,286046999.2,N
1626498395.3,286046997.0,N
1626498415.1,286046997.1,N
1626498435.9,286046999.5,N
1626498455.7,286046998.5,N
1626498475.6,286046998.3,N
1626498495.4,286046999.0,N
1626498515.2,286047001.2,N
1626498535.1,286046998.1,N
1626498536.0,286046998.1,N
1626498555.8,286047000.5,N
1626498575.6,286047001.1,N
1626498595.5,286047000.8,N
1626498615.3,286046998.3,N
1626498635.2,286046998.2,N
1626498655.9,286046999.2,N
1626498675.7,286046997.9,N
1626498695.6,286046996.0,Y
1626498715.4,286046995.0,P
1626498735.2,286046997.2,N
1626498755.1,286046997.1,N
1626498756.0,286046997.1,N
1626498775.8,286046997.3,N
1626498795.7,286046997.9,N
1626498815.5,286046997.2,N
1626498835.3,286046997.7,N
1626498855.2,286046996.8,Y
1626498875.0,286046998.5,P
1626498875.9,286046998.5,N
1626498895.7,286046998.6,N
1626498915.6,286047000.6,N
1626498935.4,286046998.3,N
1626498955.3,286046999.0,N
1626498975.1,286046998.4,N
1626498976.0,286046998.4,N
1626498995.8,286046998.7,N
1626499015.7,286046998.2,N
1626499035.5,286047000.5,N
1626499055.3,286047000.4,N
1626499075.2,286047000.7,N
1626499095.0,286046998.1,N
1626499095.9,286046998.1,N
1626499115.8,286047001.2,N
1626499135.6,286047001.0,N
1626499155.4,286047001.2,N
1626499175.3,286046999.7,N
1626499195.1,286047002.3,N
1626499215.8,286047001.5,N
1626499235.7,286047000.6,N
1626499255.5,286047001.0,N
1626499275.4,286046998.6,N
1626499295.2,286046998.9,N
1626499315.0,286046999.3,N
1626499315.9,286046999.3,N
1626499335.8,286046997.2,N
1626499355.6,286046999.6,N
1626499375.4,286046999.1,N
1626499395.3,286046998.4,N
1626499415.1,286046998.1,N
1626499435.9,286046998.3,N
1626499455.7,286046998.5,N
1626499475.5,286046998.5,N
1626499495.4,286047000.8,N
1626499515.2,286046999.8,N
1626499535.0,286047000.0,N
1626499535.9,286047000.0,N
1626499555.8,286047001.5,N
1626499575.6,286047004.0,Y
1626499595.5,286047003.6,P
1626499615.3,286047003.8,N
1626499635.1,286047003.5,N
1626499655.9,286047004.1,N
1626499675.7,286047001.5,N
1626499695.6,286047001.4,N
1626499715.4,286047003.8,N
1626499735.2,286047004.4,N
1626499755.1,286047002.3,N
1626499756.0,286047002.3,N
1626499775.8,286047001.9,N
1626499795.7,286047001.5,N
1626499815.5,286047003.6,N
1626499835.3,286047003.6,N
1626499855.2,286047001.6,N
1626499875.9,286047002.5,N
1626499895.7,286047002.6,N
1626499915.6,286047001.3,N
1626499935.4,286047001.9,N
1626499955.2,286047002.6,N
1626499975.1,286047002.0,N
1626499976.0,286047002.0,N
1626499995.8,286047002.1,N
1626500015.7,286046999.8,N
1626500035.5,286047002.6,N
1626500055.3,286047002.7,N
1626500075.2,286046999.7,N
1626500095.0,286047000.2,N
1626500095.9,286047000.2,N
1626500115.8,286047000.1,N
1626500135.6,286047002.3,N
1626500155.4,286047002.5,N
1626500175.3,286047002.0,N
1626500195.1,286047001.6,N
1626500215.8,286047002.6,N
1626500235.7,286047002.6,N
1626500255.5,286047002.5,N
1626500275.4,286047004.0,Y
1626500295.2,286047002.3,P
1626500315.0,286047002.5,P
1626500315.9,286047002.5,P
1626500335.8,286047001.5,Y
1626500355.6,286046998.5,P
1626500375.4,286046999.0,N
1626500395.3,286046999.4,N
1626500415.1,286046998.8,N
1626500435.9,286046999.4,N
1626500455.7,286046999.1,N
1626500475.5,286046997.2,N
1626500495.4,286046997.3,N
1626500515.2,286046997.3,N
1626500535.0,286046997.9,N
1626500535.9,286046997.9,N
1626500555.8,286046997.8,N
1626500575.6,286046997.4,N
1626500595.5,286046997.1,N
1626500615.3,286046997.5,N
1626500635.1,286046994.9,Y
1626500655.9,286046997.2,P
1626500675.7,286046997.6,P
1626500695.6,286046997.0,P
1626500715.4,286046996.7,Y
1626500735.2,286047000.8,P
1626500755.1,286047000.8,N
1626500756.0,286047000.8,N
1626500775.8,286047000.4,N
1626500795.6,286047000.2,N
1626500815.5,286047002.5,N
1626500835.3,286047002.3,N
1626500855.2,286046999.8,N
1626500875.9,286047002.4,N
1626500895.7,286047002.8,N
1626500915.6,286046999.8,N
1626500935.4,286046999.7,N
1626500985.3,286047002.2,E
1626500995.2,286047000.2,N
1626501015.0,286046998.1,P
1626501015.9,286046998.1,N
1626501035.8,286046998.3,N
1626501055.6,286046999.3,N
1626501075.4,286046999.1,N
1626501095.3,286046997.1,Y
1626501115.1,286046999.6,P
1626501135.9,286046999.1,N
1626501155.7,286046997.0,P
1626501175.5,286046999.5,N
1626501195.4,286046996.8,Y
1626501215.2,286046999.4,P
1626501235.0,286046999.4,N
1626501235.9,286046999.4,N
1626501255.8,286046998.8,Y
1626501275.6,286047000.3,P
1626501295.5,286046998.8,N
1626501315.3,286046998.4,N
1626501335.1,286046999.2,N
1626501355.9,286046998.2,N
1626501375.7,286046998.2,N
1626501395.5,286046998.1,N
1626501415.4,286047000.9,N
1626501435.2,286046998.1,N
1626501455.1,286046998.4,N
1626501456.0,286046998.4,N
1626501475.8,286047000.9,N
1626501495.6,286046998.9,N
1626501515.5,286046998.4,N
1626501535.3,286046999.4,N
1626501555.1,286046999.1,N
1626501575.9,286046998.3,N
1626501595.7,286046998.6,N
